This is the latest recevied weather packets stored in our database for station/object TA3HRJ-12. If no packets are shown the sender has not sent any weather packets the latest 10 day(s).
| Time | Temp. | Humidity | Pressure | Rain* | Wind** | Luminosity | Snow |
|---|---|---|---|---|---|---|---|
| 1778054133 | 20.56° C | 30% | 1028.6 hPa | - | - | - | - |
| 1778053233 | 20.56° C | 32% | 1028.5 hPa | - | - | - | - |
| 1778052333 | 20° C | 32% | 1028.4 hPa | - | - | - | - |
| 1778051433 | 20° C | 33% | 1028.4 hPa | - | - | - | - |
| 1778050533 | 18.33° C | 34% | 1028.3 hPa | - | - | - | - |
| 1778049633 | 17.22° C | 36% | 1028.3 hPa | - | - | - | - |
| 1778048733 | 19.44° C | 33% | 1028.2 hPa | - | - | - | - |
| 1778047833 | 18.89° C | 35% | 1028.2 hPa | - | - | - | - |
| 1778046933 | 17.78° C | 34% | 1028.2 hPa | - | - | - | - |
| 1778046032 | 18.89° C | 35% | 1028.2 hPa | - | - | - | - |
| 1778045132 | 17.22° C | 38% | 1028.2 hPa | - | - | - | - |
| 1778044232 | 16.11° C | 39% | 1028.1 hPa | - | - | - | - |
| 1778043332 | 15.56° C | 40% | 1027.9 hPa | - | - | - | - |
| 1778042432 | 14.44° C | 44% | 1027.8 hPa | - | - | - | - |
| 1778041532 | 13.33° C | 45% | 1027.7 hPa | - | - | - | - |
| 1778040632 | 13.33° C | 45% | 1027.6 hPa | - | - | - | - |
| 1778039732 | 13.89° C | 45% | 1027.5 hPa | - | - | - | - |
| 1778038832 | 13.33° C | 46% | 1027.3 hPa | - | - | - | - |
| 1778037932 | 13.89° C | 44% | 1027.2 hPa | - | - | - | - |
| 1778037032 | 13.89° C | 44% | 1027 hPa | - | - | - | - |
| 1778036131 | 13.89° C | 44% | 1026.9 hPa | - | - | - | - |
| 1778035231 | 13.33° C | 45% | 1026.8 hPa | - | - | - | - |
| 1778034331 | 13.89° C | 45% | 1026.6 hPa | - | - | - | - |
| 1778033431 | 13.89° C | 45% | 1026.5 hPa | - | - | - | - |
| 1778032531 | 12.78° C | 46% | 1026.5 hPa | - | - | - | - |
* Rain since midnight (hover to see other rain measurements)
** Current wind speed in m/s (hover to see current wind gust speed)